Weather Roundup
Issued by NWS

Home | Current Version | Previous Version | Graphics & Text | Print | Product List | Glossary Off
Versions: 1 2 3 4 5 6 7 8 9 10 11 12 13 14 15 16 17 18 19 20 21 22 23 24 25 26 27 28 29 30 31 32 33 34 35 36 37 38 39 40 41 42 43 44 45 46 47 48 49 50

000
NZUS93 KARX 231459
HRRWXR

CURRENT HOURLY OBSERVATIONS ACROSS
MUCH OF THE UPPER MISSISSIPPI VALLEY
NATIONAL WEATHER SERVICE LA CROSSE WI
900 AM CST THU NOV 23 2017


...SOUTHEAST MINNESOTA...


CITY           SKY/WX    TMP DP  RH WIND       PRES   REMARKS
ROCHESTER      SUNNY     29  20  69 NW8       29.94R WCI  21
ROCHESTER/MAYO FAIR      29  20  69 CALM      29.95R
WINONA         SUNNY     30  23  74 NW3       29.97R
AUSTIN         NOT AVBL
ALBERT LEA     SUNNY     30  19  64 NW3       29.95S
DODGE CENTER   SUNNY     28  19  69 W5        29.93F WCI  23
PRESTON        SUNNY     29  20  69 NW7       29.94R WCI  21
OWATONNA       SUNNY     28  21  74 CALM      29.95S
FARIBAULT      SUNNY     28  21  74 CALM      29.95F
$$

...ELSEWHERE IN MINNESOTA...


CITY           SKY/WX    TMP DP  RH WIND       PRES   REMARKS
MINNEAPOLIS    MOSUNNY   30  21  69 CALM      29.94F
INTNL FALLS    CLOUDY    21  16  81 W3        29.85F
DULUTH         CLOUDY    23  20  88 W8        29.87R WCI  14
RED WING       SUNNY     28  19  69 CALM      29.95S
REDWOOD FALLS  SUNNY     28  20  71 NW6       29.96F WCI  22
MANKATO        CLOUDY    26  19  74 W5        29.97R WCI  20
WORTHINGTON    SUNNY     31  24  75 SW7       29.97S WCI  24
FAIRMONT       SUNNY     30  23  75 NW8       29.97F WCI  22
$$

...SOUTHWEST WISCONSIN...


CITY           SKY/WX    TMP DP  RH WIND       PRES   REMARKS
LA CROSSE      SUNNY     33  21  61 S6        29.95F WCI  28
PRAIRIE DU CHI SUNNY     31  19  61 CALM      29.97S
BOSCOBEL       SUNNY     32  20  61 S3        29.97F
LONE ROCK      NOT AVBL
PLATTEVILLE    SUNNY     31  23  71 S7        29.97R WCI  25
FORT MC COY    SUNNY     28  20  73 CALM      29.95S
CAMP DOUGLAS   SUNNY     32  18  55 SW6       29.92F WCI  27
MAUSTON-NEW LI MOSUNNY   32  19  58 SW3       29.95S
VIROQUA        FAIR      30  22  72 SW6       29.93S WCI  24
WIS DELLS      SUNNY     32  19  57 SW5       29.95S WCI  27
$$

...ELSEWHERE IN WISCONSIN...


CITY           SKY/WX    TMP DP  RH WIND       PRES   REMARKS
MILWAUKEE      MOSUNNY   36  22  56 SW13      30.00S WCI  27
MADISON        MOSUNNY   33  21  61 SW6       29.95F WCI  28
GREEN BAY      SUNNY     33  24  69 SW7       29.94F WCI  27
EAU CLAIRE     NOT AVBL
BLACK RVR FLS  FAIR      25  18  75 CALM      29.94F
MEDFORD        SUNNY     24  19  80 SW3       29.90R
WAUSAU         MOSUNNY   26  21  81 SW3       29.89F
WIS RAPIDS     SUNNY     31  20  63 SW6       29.93F WCI  25
MARSHFIELD     SUNNY     28  18  66 SW5       29.90F WCI  23
RICE LAKE      SUNNY     22  21  94 CALM      29.94F
$$

...NORTHEAST IOWA...


CITY           SKY/WX    TMP DP  RH WIND       PRES   REMARKS
WATERLOO       SUNNY     32  20  61 NW6       29.97R WCI  26
DUBUQUE        SUNNY     31  20  63 SW9       29.96S WCI  23
DECORAH        SUNNY     28  19  69 W5        29.93F WCI  23
MASON CITY     CLOUDY    31  21  66 NW9       29.97R WCI  23
CHARLES CITY   SUNNY     30  21  69 NW7       29.96R WCI  23
OELWEIN        SUNNY     32  23  69 W6        29.95S WCI  26
$$

...ELSEWHERE IN IOWA...


CITY           SKY/WX    TMP DP  RH WIND       PRES   REMARKS
DES MOINES     PTSUNNY   38  25  59 NW8       29.99R WCI  32
IOWA CITY      SUNNY     34  22  61 SW6       30.00S WCI  29
FORT DODGE     CLOUDY    33  25  72 NW7       29.99R WCI  27
MARSHALLTOWN   CLOUDY    33  23  66 NW9       29.96S WCI  25
CEDAR RAPIDS   SUNNY     34  22  61 W8        29.96S WCI  27
$$

...NORTHERN ILLINOIS...


CITY           SKY/WX    TMP DP  RH WIND       PRES   REMARKS
CHICAGO-OHARE  MOSUNNY   37  21  52 SW13      30.02F WCI  29
CHICAGO-MIDWAY NOT AVBL
MOLINE         SUNNY     36  21  54 SW6       29.99S WCI  31
ROCKFORD       MOSUNNY   34  23  64 SW9       30.01F WCI  27
PEORIA         CLOUDY    36  23  59 SW12      30.04R WCI  28
$$

NOTE: "FAIR" INDICATES FEW OR NO CLOUDS BELOW 12,000 FEET WITH NO
SIGNIFICANT WEATHER AND/OR OBSTRUCTIONS TO VISIBILITY. WIND
SPEEDS ARE IN MILES-PER-HOUR.




USA.gov is the U.S. government's official web portal to all federal, state and local government web resources and services.